Change the Weather History Date:

Tuesday, February 4, 2014

  Actual Average Record
Temperature  
Mean Temperature 26 °F 33 °F  
Max Temperature 30 °F 41 °F 60 °F (1934)
Min Temperature 21 °F 23 °F -12 °F (1985)
Degree Days  
Heating Degree Days 39 32  
Month to date heating degree days 137 130  
Cooling Degree Days 0 0  
Month to date cooling degree days 0 0  
Moisture  
Dew Point 20 °F    
Average Humidity 84    
Maximum Humidity 100    
Minimum Humidity 51    
Precipitation  
Precipitation 0.00 in 0.03 in 0.69 in (1907)
Month to date precipitation T 0.11  
Sea Level Pressure  
Sea Level Pressure 30.12 in    
Wind  
Wind Speed 9 mph (NW)    
Max Wind Speed 16 mph    
Max Gust Speed -    
Visibility 10 miles    
Events      
T = Trace of Precipitation, MM = Missing Value Source: NWS Daily Summary

Daily Weather History Graph

Daily Weather History Graph

Search for Another Location

Airport or City:

Trip Planner

Search our weather history database for the weather conditions in past years. The results will help you decide how hot, cold, wet, or windy it might be!

Date:

Astronomy

Feb. 04, 2014 Rise Set
Actual Time 7:55 AM MST 6:00 PM MST
Civil Twilight 7:25 AM MST 6:30 PM MST
Nautical Twilight 6:51 AM MST 7:03 PM MST
Astronomical Twilight 6:18 AM MST 7:37 PM MST
Moon 10:26 AM MST (2/4) No Moon Set
Length of Visible Light 11h 04m
Length of Day
10h 05m
Waxing Crescent, 29% of the Moon is Illuminated
Feb 4
Waxing Crescent
Feb 6
First Quarter
Feb 14
Full
Feb 22
Last Quarter
Mar 1
New

Hourly Weather History & Observations

Time (MST) Temp. Windchill Dew Point Humidity Pressure Visibility Wind Dir Wind Speed Gust Speed Precip Events Conditions
12:58 AM 26.2 °F 19.6 °F 26.2 °F 100% 30.01 in 10.0 mi West 5.8 mph - N/A   Overcast
1:58 AM 26.8 °F 18.5 °F 26.8 °F 100% 30.01 in 10.0 mi WNW 8.1 mph - N/A   Overcast
2:58 AM 26.1 °F 16.8 °F 26.1 °F 100% 30.02 in 10.0 mi NW 9.2 mph - N/A   Overcast
3:13 AM 24.8 °F 16.9 °F 24.8 °F 100% 29.96 in 10.0 mi WNW 6.9 mph - N/A   Overcast
3:58 AM 24.6 °F 15.8 °F 24.6 °F 100% 30.04 in 10.0 mi NW 8.1 mph - N/A   Overcast
4:33 AM 23.0 °F 11.1 °F 23.0 °F 100% 29.97 in 10.0 mi NW 12.7 mph - N/A   Scattered Clouds
4:58 AM 23.0 °F 10.6 °F 23.0 °F 100% 30.06 in 10.0 mi WNW 13.8 mph - N/A   Scattered Clouds
5:58 AM 21.0 °F 9.3 °F 21.0 °F 100% 30.09 in 10.0 mi WNW 11.5 mph - N/A   Scattered Clouds
6:08 AM 21.2 °F 10.9 °F 21.2 °F 100% 30.00 in 10.0 mi WNW 9.2 mph - N/A   Mostly Cloudy
6:48 AM 23.0 °F 11.7 °F 23.0 °F 100% 30.00 in 10.0 mi WNW 11.5 mph - N/A   Overcast
6:53 AM 23.0 °F 13.1 °F 23.0 °F 100% 30.01 in 10.0 mi WNW 9.2 mph - N/A   Overcast
6:58 AM 22.6 °F 12.6 °F 22.6 °F 100% 30.09 in 10.0 mi West 9.2 mph - N/A   Overcast
7:58 AM 22.6 °F 10.7 °F 22.6 °F 100% 30.11 in 10.0 mi West 12.7 mph - N/A   Overcast
8:58 AM 23.4 °F 12.8 °F 23.4 °F 100% 30.05 in 10.0 mi NW 10.4 mph - N/A   Overcast
9:58 AM 24.3 °F 13.3 °F 23.9 °F 99% 30.08 in 10.0 mi NW 11.5 mph - N/A   Overcast
10:58 AM 25.2 °F 12.4 °F 24.8 °F 99% 30.19 in 10.0 mi WNW 16.1 mph - N/A   Mostly Cloudy
11:58 AM 27.0 °F 14.7 °F 19.9 °F 75% 30.20 in 10.0 mi NW 16.1 mph - N/A   Mostly Cloudy
12:58 PM 28.9 °F 17.7 °F 16.5 °F 60% 30.18 in 10.0 mi NW 15.0 mph - N/A   Scattered Clouds
1:58 PM 29.8 °F 20.9 °F 15.8 °F 56% 30.17 in 10.0 mi NW 10.4 mph - N/A   Scattered Clouds
2:58 PM 29.1 °F 17.5 °F 13.5 °F 52% 30.16 in 10.0 mi NW 16.1 mph - N/A   Mostly Cloudy
3:58 PM 28.8 °F 17.9 °F 13.8 °F 54% 30.18 in 10.0 mi NNW 13.8 mph - N/A   Mostly Cloudy
4:28 PM 28.4 °F 19.1 °F 14.0 °F 55% 30.09 in 10.0 mi NW 10.4 mph - N/A   Overcast
4:58 PM 28.4 °F 18.5 °F 12.9 °F 52% 30.18 in 10.0 mi NNW 11.5 mph - N/A   Overcast
5:28 PM 28.4 °F 18.0 °F 12.2 °F 51% 30.10 in 10.0 mi NNW 12.7 mph - N/A   Overcast
5:43 PM 28.4 °F 19.1 °F 14.0 °F 55% 30.10 in 10.0 mi NNW 10.4 mph - N/A   Overcast
5:58 PM 27.3 °F 18.4 °F 14.2 °F 58% 30.20 in 10.0 mi NNW 9.2 mph - N/A   Overcast
6:58 PM 27.0 °F 20.5 °F 15.8 °F 63% 30.22 in 10.0 mi NW 5.8 mph - N/A   Overcast
7:58 PM 25.2 °F - 19.9 °F 81% 30.22 in 10.0 mi SSW 2.3 mph - N/A   Overcast
8:03 PM 24.8 °F 20.5 °F 21.2 °F 86% 30.13 in 10.0 mi SW 3.5 mph - N/A   Overcast
8:58 PM 25.2 °F - 23.0 °F 91% 30.25 in 10.0 mi SE 2.3 mph - N/A   Overcast
9:58 PM 24.3 °F 15.4 °F 21.4 °F 89% 30.27 in 10.0 mi East 8.1 mph - N/A   Overcast
10:58 PM 23.5 °F 13.0 °F 19.9 °F 86% 30.27 in 10.0 mi ESE 10.4 mph - N/A   Overcast
11:08 PM 23.0 °F 12.4 °F 19.4 °F 86% 30.17 in 10.0 mi East 10.4 mph - N/A   Overcast
11:28 PM 23.0 °F 15.8 °F 21.2 °F 93% 30.17 in 10.0 mi ESE 5.8 mph - N/A   Overcast
11:58 PM 23.2 °F 13.3 °F 20.7 °F 90% 30.28 in 10.0 mi ESE 9.2 mph - N/A   Overcast